| time (UTC) | temp C | wind direction | speed KPH | gust KPH | rain 1hr cm | rain 24hr cm | rain mn cm | humidity % | barometer mb |
| 20260506113045 | 8 | 176 | 3.2 | 6.4 | 0.00 | 0.08 | 0.00 | 58 | 1011.7 |
| 20260506111545 | 8 | 165 | 1.6 | 6.4 | 0.00 | 0.08 | 0.00 | 57 | 1011.5 |
| 20260506110043 | 8 | 188 | 1.6 | 6.4 | 0.00 | 0.10 | 0.00 | 57 | 1011.5 |
| 20260506104540 | 8 | 152 | 3.2 | 6.4 | 0.00 | 0.10 | 0.00 | 58 | 1011.4 |
| 20260506103050 | 8 | 198 | 1.6 | 6.4 | 0.00 | 0.10 | 0.00 | 58 | 1011.4 |
| 20260506101533 | 8 | 147 | 3.2 | 8.0 | 0.00 | 0.10 | 0.00 | 59 | 1011.3 |
| 20260506100036 | 8 | 159 | 1.6 | 4.8 | 0.00 | 0.20 | 0.00 | 61 | 1011.3 |
| 20260506094530 | 8 | 169 | 0.0 | 4.8 | 0.00 | 0.20 | 0.00 | 61 | 1011.3 |
| 20260506093028 | 8 | 208 | 0.0 | 0.0 | 0.00 | 0.20 | 0.00 | 62 | 1011.2 |
| 20260506091527 | 8 | 146 | 3.2 | 6.4 | 0.00 | 0.20 | 0.00 | 62 | 1011.1 |
| 20260506090029 | 8 | 164 | 1.6 | 6.4 | 0.00 | 0.33 | 0.00 | 63 | 1011.0 |
| 20260506084522 | 8 | 172 | 1.6 | 3.2 | 0.00 | 0.33 | 0.00 | 65 | 1011.0 |
| 20260506083020 | 8 | 163 | 0.0 | 0.0 | 0.00 | 0.33 | 0.00 | 66 | 1011.2 |
| 20260506081520 | 8 | 158 | 0.0 | 0.0 | 0.00 | 0.33 | 0.00 | 65 | 1011.2 |
| 20260506073046 | 8 | 157 | 0.0 | 0.0 | 0.00 | 0.46 | 0.00 | 62 | 1011.2 |
| 20260506071538 | 8 | 225 | 0.0 | 0.0 | 0.00 | 0.46 | 0.00 | 62 | 1011.0 |
| 20260506061529 | 10 | 168 | 1.6 | 3.2 | 0.00 | 0.46 | 0.46 | 60 | 1011.0 |
| 20260506044512 | 12 | 325 | 0.0 | 0.0 | 0.00 | 0.46 | 0.46 | 52 | 1010.5 |
| 20260506043013 | 12 | 285 | 0.0 | 12.9 | 0.00 | 0.46 | 0.46 | 51 | 1010.2 |
| 20260506041506 | 12 | 18 | 0.0 | 6.4 | 0.00 | 0.46 | 0.46 | 50 | 1009.7 |
| 20260506040014 | 13 | 289 | 0.0 | 9.7 | 0.00 | 0.46 | 0.46 | 49 | 1009.7 |
| 20260506034512 | 13 | 342 | 1.6 | 6.4 | 0.00 | 0.46 | 0.46 | 48 | 1009.6 |
| 20260506033003 | 13 | 354 | 3.2 | 9.7 | 0.00 | 0.46 | 0.46 | 47 | 1009.2 |
| 20260506031502 | 13 | 59 | 0.0 | 8.0 | 0.00 | 0.46 | 0.46 | 44 | 1009.0 |
| 20260506030002 | 14 | 8 | 0.0 | 6.4 | 0.00 | 0.46 | 0.46 | 43 | 1008.7 |
| 20260506024619 | 14 | 53 | 0.0 | 9.7 | 0.00 | 0.46 | 0.46 | 42 | 1008.6 |
| 20260506023100 | 15 | 334 | 3.2 | 11.3 | 0.00 | 0.46 | 0.46 | 41 | 1008.3 |
| 20260506021558 | 15 | 257 | 1.6 | 9.7 | 0.00 | 0.46 | 0.46 | 38 | 1007.9 |
| 20260506020058 | 15 | 328 | 0.0 | 11.3 | 0.00 | 0.46 | 0.46 | 36 | 1007.7 |
| 20260506014556 | 16 | 41 | 1.6 | 9.7 | 0.00 | 0.46 | 0.46 | 34 | 1007.4 |
| 20260506014501 | 16 | 295 | 0.0 | 9.7 | 0.00 | 0.46 | 0.46 | 34 | 1007.5 |
| 20260506013107 | 16 | 349 | 4.8 | 19.3 | 0.00 | 0.46 | 0.46 | 33 | 1007.5 |
| 20260506011604 | 17 | 328 | 4.8 | 19.3 | 0.00 | 0.46 | 0.46 | 32 | 1007.1 |
| 20260506010050 | 17 | 338 | 6.4 | 14.5 | 0.00 | 0.46 | 0.46 | 31 | 1007.0 |
| 20260506004548 | 18 | 21 | 9.7 | 22.5 | 0.00 | 0.46 | 0.46 | 29 | 1006.8 |
| 20260506003047 | 18 | 333 | 6.4 | 12.9 | 0.00 | 0.46 | 0.46 | 29 | 1006.7 |
| 20260506001546 | 19 | 330 | 3.2 | 11.3 | 0.00 | 0.46 | 0.46 | 29 | 1006.6 |
| 20260506000044 | 19 | 198 | 3.2 | 12.9 | 0.00 | 0.46 | 0.46 | 30 | 1006.2 |
| 20260505234541 | 20 | 358 | 4.8 | 19.3 | 0.00 | 0.46 | 0.46 | 29 | 1006.2 |
| 20260505233039 | 20 | 320 | 4.8 | 17.7 | 0.00 | 0.46 | 0.46 | 29 | 1006.0 |
| 20260505231538 | 20 | 312 | 3.2 | 14.5 | 0.00 | 0.46 | 0.46 | 31 | 1005.9 |
| 20260505230050 | 20 | 88 | 3.2 | 9.7 | 0.00 | 0.46 | 0.46 | 32 | 1005.9 |
| 20260505224524 | 20 | 328 | 4.8 | 14.5 | 0.00 | 0.46 | 0.46 | 32 | 1006.0 |
| 20260505223027 | 20 | 120 | 4.8 | 16.1 | 0.00 | 0.46 | 0.46 | 34 | 1006.1 |
| 20260505221521 | 20 | 160 | 4.8 | 12.9 | 0.00 | 0.46 | 0.46 | 35 | 1006.1 |
| 20260505220021 | 19 | 53 | 12.9 | 22.5 | 0.00 | 0.46 | 0.46 | 36 | 1006.0 |
| 20260505214515 | 20 | 289 | 4.8 | 24.1 | 0.00 | 0.46 | 0.46 | 35 | 1006.2 |
| 20260505213013 | 20 | 64 | 4.8 | 27.4 | 0.00 | 0.46 | 0.46 | 37 | 1006.4 |
| 20260505211512 | 20 | 317 | 8.0 | 27.4 | 0.00 | 0.46 | 0.46 | 36 | 1006.7 |
| 20260505210010 | 20 | 343 | 8.0 | 22.5 | 0.00 | 0.46 | 0.46 | 36 | 1006.6 |
| 20260505204609 | 20 | 264 | 1.6 | 17.7 | 0.00 | 0.46 | 0.46 | 39 | 1006.4 |
| 20260505203045 | 20 | 290 | 6.4 | 19.3 | 0.00 | 0.46 | 0.46 | 40 | 1006.2 |
| 20260505201534 | 20 | 158 | 11.3 | 24.1 | 0.00 | 0.46 | 0.46 | 40 | 1006.4 |
| 20260505200035 | 21 | 86 | 6.4 | 27.4 | 0.00 | 0.46 | 0.46 | 41 | 1006.5 |
| 20260505194530 | 20 | 290 | 6.4 | 22.5 | 0.00 | 0.46 | 0.46 | 39 | 1006.5 |
| 20260505194528 | 20 | 276 | 6.4 | 22.5 | 0.00 | 0.46 | 0.46 | 39 | 1006.5 |
| 20260505193025 | 20 | 13 | 9.7 | 19.3 | 0.00 | 0.46 | 0.46 | 42 | 1006.2 |
| 20260505191523 | 20 | 45 | 9.7 | 24.1 | 0.00 | 0.46 | 0.46 | 43 | 1006.5 |
| 20260505190049 | 20 | 290 | 6.4 | 19.3 | 0.00 | 0.46 | 0.46 | 45 | 1006.8 |
| 20260505184547 | 19 | 357 | 1.6 | 17.7 | 0.00 | 0.46 | 0.46 | 48 | 1006.8 |
| 20260505183053 | 18 | 15 | 6.4 | 17.7 | 0.00 | 0.46 | 0.46 | 48 | 1007.3 |
| 20260505181543 | 18 | 229 | 6.4 | 35.4 | 0.00 | 0.46 | 0.46 | 51 | 1007.4 |
| 20260505180041 | 18 | 63 | 8.0 | 12.9 | 0.00 | 0.46 | 0.46 | 52 | 1007.4 |
| 20260505174546 | 19 | 340 | 0.0 | 24.1 | 0.00 | 0.46 | 0.46 | 55 | 1007.3 |
| 20260505173014 | 18 | 63 | 3.2 | 17.7 | 0.00 | 0.46 | 0.46 | 56 | 1007.0 |
| 20260505171503 | 17 | 271 | 3.2 | 16.1 | 0.00 | 0.46 | 0.46 | 59 | 1007.2 |
| 20260505170057 | 17 | 337 | 3.2 | 16.1 | 0.00 | 0.46 | 0.46 | 63 | 1007.2 |
| 20260505164601 | 16 | 221 | 0.0 | 20.9 | 0.00 | 0.46 | 0.46 | 69 | 1007.1 |
| 20260505163056 | 15 | 64 | 6.4 | 12.9 | 0.00 | 0.46 | 0.46 | 74 | 1007.2 |
| 20260505161548 | 15 | 74 | 0.0 | 8.0 | 0.00 | 0.46 | 0.46 | 77 | 1007.5 |
| 20260505153059 | 13 | 337 | 0.0 | 4.8 | 0.00 | 0.46 | 0.46 | 81 | 1007.5 |
| 20260505151553 | 13 | 329 | 1.6 | 4.8 | 0.00 | 0.46 | 0.46 | 80 | 1007.2 |
| 20260505124527 | 13 | 21 | 4.8 | 12.9 | 0.05 | 0.46 | 0.46 | 73 | 1005.3 |
| 20260505123023 | 13 | 155 | 0.0 | 32.2 | 0.05 | 0.46 | 0.46 | 73 | 1005.0 |
| 20260505121521 | 13 | 293 | 12.9 | 27.4 | 0.05 | 0.46 | 0.46 | 70 | 1005.8 |
| 20260505120019 | 13 | 160 | 0.0 | 20.9 | 0.08 | 0.46 | 0.46 | 71 | 1005.6 |
| 20260505114531 | 14 | 323 | 0.0 | 11.3 | 0.05 | 0.41 | 0.41 | 68 | 1005.0 |